Orbital Elements
Epoch 2024 Oct. 17.0 TT = JDT 2460600.5
T 2025 Jan. 3.25289 TT Rudenko
q 2.9585690 (2000.0) P Q
n 0.11508744 Peri. 225.27172 +0.99240309 -0.05342190
a 4.1858543 Node 137.42166 +0.08292029 +0.95589967
e 0.2931983 Incl. 9.42739 -0.09088633 +0.28879389
P 8.56
>From 346 observations 2016 Aug. 5-2024 Sept. 1, mean residual 0".6.
Nongravitational parameters A1 = -4.20, A2 = +0.5142.
|